Location: Karlovy Vary
(50.2167°N, 12.9000°E)
Time: 11:52:52
(UTC+01:00)

ISS - Visible Passes

Search period start: 20 January 2018 00:00
Search period end: 30 January 2018 00:00
Orbit: 402 x 407 km, 51.6° (Epoch: 20 January)

Date Brightness Start Highest point End Pass type
(mag) Time Alt. Az. Time Alt. Az. Time Alt. Az.
26 Jan -1.9 18:54:35 10° SSW 18:56:12 19° S 18:56:12 19° S visible
27 Jan -1.7 18:03:10 10° S 18:05:04 15° SE 18:06:11 13° ESE visible
27 Jan -1.2 19:37:49 10° WSW 19:38:51 19° SW 19:38:51 19° SW visible
28 Jan -3.2 18:45:37 10° SW 18:48:42 40° SSE 18:48:45 40° SSE visible
29 Jan -2.4 17:53:37 10° SSW 17:56:25 26° SE 17:58:36 14° E visible
29 Jan -2.0 19:29:22 10° WSW 19:31:15 32° WSW 19:31:15 32° WSW visible
